Regional Weather Roundup
Issued by NWS Newport/Morehead, NC

Current Version | Previous Version | Graphics & Text | Print | Product List | Glossary Off
Versions: 1 2 3 4 5 6 7 8 9 10 11 12 13 14 15 16 17 18 19 20 21 22 23 24 25 26 27 28 29 30 31 32 33 34 35 36 37 38 39 40 41 42 43 44 45 46 47 48 49 50

000
ASUS42 KMHX 022213
RWRMHX
WEATHER ROUNDUP FOR EASTERN NORTH CAROLINA
NATIONAL WEATHER SERVICE NEWPORT/MOREHEAD CITY NC
600 PM EDT TUE JUN 02 2015

NOTE: "FAIR" INDICATES FEW OR NO CLOUDS BELOW 12,000 FEET
WITH NO SIGNIFICANT WEATHER AND/OR OBSTRUCTIONS TO VISIBILITY

NCZ015>017-031-032-045>047-102-103-022300-
NORTH COAST

CITY           SKY/WX    TMP DP  RH WIND       PRES   REMARKS
EDENTON        CLOUDY    71  68  90 E6        29.99S
ELIZABETH CITY LGT RAIN  71  69  93 SE8       30.00S
KITTY HAWK       N/A     70  69  96 NE3       29.99F
MANTEO         LGT RAIN  71  68  90 N5        30.01F

$$

NCZ045>047-081-094-103-104-022300-
CENTRAL COAST

CITY           SKY/WX    TMP DP  RH WIND       PRES   REMARKS
FRISCO         PTSUNNY   80  70  71 SW8       30.00R
SWANQUARTER      N/A     72 N/A N/A E2        29.97S

$$

NCZ095-097-098-100-101-022300-
SOUTHERN COAST

CITY           SKY/WX    TMP DP  RH WIND       PRES   REMARKS
BEAUFORT       CLOUDY    78  70  76 CALM      29.99S
CEDAR ISLAND     N/A     77 N/A N/A N3G9      30.03S
JACKSONVILLE   TSTM      69  66  90 SE8       29.99S FOG
PINEY ISLAND   MOCLDY   N/A N/A N/A N5        29.99S
WILMINGTON     MOSUNNY   81  69  67 N3        29.97S


$$

NCZ011>013-027>030-043-044-078>080-089-090>093-098-022300-
COASTAL PLAIN

CITY           SKY/WX    TMP DP  RH WIND       PRES   REMARKS
AHOSKIE        CLOUDY    69  66  91 E6        29.98S
CLINTON        CLOUDY    73  71  96 CALM      29.97F
ELIZABETHTOWN  CLOUDY    76  71  83 CALM      29.96F
GOLDSBORO      CLOUDY    73  71  96 CALM      29.96R
GREENVILLE     CLOUDY    75  72  88 S5        29.99F
HAVELOCK       CLOUDY    76  67  73 E5        30.00F
KENANSVILLE    CLOUDY    72  69  91 CALM      29.98S
KINSTON        CLOUDY    73  68  83 SE6       29.99S
NEW BERN       CLOUDY    74  69  85 CALM      30.00F
RICHLANDS      CLOUDY    72  68  88 E5        29.99S THUNDER
ROCKY MOUNT    CLOUDY    78  68  71 CALM      29.96F
WASHINGTON     CLOUDY    73  70  89 SE5       29.98F
WHITEVILLE     CLOUDY    76  69  80 CALM      29.95F

$$

AMZ130-135-150-152-154-156-158-170-250-252-270-ANZ085-086-088-633-658-670-022300-
MARINE OBSERVATIONS

STATION/POSITION TIME  TEMP    WIND        PRES    WAVE   SWELL
                       AIR SEA DIR/SP/G            HT/PER HT/PER
                 (UTC) (F)     (DEG/KT/KT) (MB)    (FT/S) (FT/S)
CHESAPEAKE LIGHT 2100   66     350/  6/  7 1016.8
64 E VA BEACH    2150   74 73  100/  2/  4 1015.4    3/ 7   3/ 7
DUCK             2100   65 56   90/  3/  5 1015.8
2 E DUCK         2111      64                N/A     2/ 8
OREGON INLET     2100   74 82  300/ 13/ 21 1016.3
13E OREGON INLT  2200      78                N/A     3/ 8
HATTERAS CG      2100   80 79  210/  9/ 12 1015.4
DIAMOND BUOY     2150   79 82  220/  8/ 10 1015.8    2/ 8   2/ 8
CAPE LOOKOUT     2200   79     210/  6/  8 1015.3
BEAUFORT LAB     2100   78 80  160/  2/  4 1014.8
30 SE NEW RVR IN NOT AVBL
27 SE WRIGHTSVLE 2100      78  220/  8/  8   N/A
5 SE WRIGHTSVLE  2108   78 79  210/ 12/ 16 1014.8
225 S CAPE HAT   2150   78 80  190/  8/ 10 1016.0    3/ 9   3/ 9
41 SE CHARLESTON 2150   79 81  160/  8/ 10 1014.3    2/ 8   2/ 8

$$



USA.gov is the U.S. government's official web portal to all federal, state and local government web resources and services.